sat.trackr.live / text

‹ back to catalog

ONEWEB-0600

NORAD 54664 · 2022-166Y

PAYLOAD ACTIVE UNKNOWN

§ Identity

Operator
Country
UK
Launch date
2022-12-08
Launch site
AFETR
Launch vehicle
Mass (kg)
RCS (m²)

Purposes: comms

External: N2YO · Heavens-Above · Gunter

§ Orbital elements

Epoch: 2026-05-25T00:43:42.760128Z

Period
108.94 min
Inclination
87.9252°
Eccentricity
0.0001934
Mean motion
13.21826980 rev/d
Perigee alt
1,176.3 km
Apogee alt
1,179.2 km
Semi-major
7,555.9 km
B*
3.5733e-5
RAAN
248.5865°
Arg perigee
93.4875°
Mean anomaly
266.6480°
Rev number
16,845

§ Raw data

ONEWEB-06001 54664U 22166Y   26145.03035602  .00000028  00000+0  35733-4 0  99932 54664  87.9252 248.5865 0001934  93.4875 266.6480 13.21826980168457

JSON: /api/v1/satellites/54664 · /tle

For live sub-satellite position, see the globe view (requires WebGL).

§ Visibility from observer

Set your observer location to see the next 7 days of passes ≥ 10°. The values pass through the URL so the page stays shareable.

No JS? Fill the form by hand. The geolocation button needs JavaScript.